Lake Charles Regional, LA

4:52 AM CST on February 24, 2018 (GMT -0600)
Lake Charles Regional

Weather History for KLCH - January, 2014

Change the Weather History Date:

Tuesday, January 21, 2014

  Actual Average Record
Temperature  
Mean Temperature 49 °F 52 °F  
Max Temperature 62 °F 61 °F 80 °F (1927)
Min Temperature 36 °F 42 °F 15 °F (1985)
Degree Days  
Heating Degree Days 16 13  
Month to date heating degree days 341 293  
Since 1 July heating degree days 1058 867  
Cooling Degree Days 0 0  
Month to date cooling degree days 0 0  
Year to date cooling degree days 0 0  
Moisture  
Dew Point 30 °F    
Average Humidity 60    
Maximum Humidity 100    
Minimum Humidity 19    
Precipitation  
Precipitation T in 0.17 in 5.00 in (1916)
Month to date precipitation 2.05 3.67  
Year to date precipitation 2.05 3.67  
Snow  
Snow 0.00 in 0.00 in T in (1987)
Month to date snowfall 0.0 0.0  
Since 1 July snowfall 0.0 T  
Snow Depth 0.00 in    
Sea Level Pressure  
Sea Level Pressure 30.18 in    
Wind  
Wind Speed 12 mph (NNW)    
Max Wind Speed 25 mph    
Max Gust Speed 33 mph    
Visibility 9 miles    
Events Fog , Rain    
T = Trace of Precipitation, MM = Missing Value Source: NWS Daily Summary

Daily Weather History Graph

Daily Weather History Graph

Search for Another Location

Airport or City:

Trip Planner

Search our weather history database for the weather conditions in past years. The results will help you decide how hot, cold, wet, or windy it might be!

Date:

Astronomy

Jan. 21, 2014 Rise Set
Actual Time 7:08 AM CST 5:40 PM CST
Civil Twilight 6:42 AM CST 6:06 PM CST
Nautical Twilight 6:13 AM CST 6:35 PM CST
Astronomical Twilight 5:44 AM CST 7:03 PM CST
Moon 10:46 PM CST (1/21) 10:03 AM CST (1/21)
Length of Visible Light 11h 23m
Length of Day
10h 32m
Waning Gibbous, 74% of the Moon is Illuminated
Jan 21
Waning Gibbous
Jan 23
Last Quarter
Jan 30
New
Feb 6
First Quarter
Feb 14
Full

Hourly Weather History & Observations

Time (CST) Temp. Windchill Dew Point Humidity Pressure Visibility Wind Dir Wind Speed Gust Speed Precip Events Conditions
12:53 AM 60.1 °F - 59.0 °F 96% 30.03 in 0.5 mi West 5.8 mph - N/A Fog Fog
1:23 AM 60.1 °F - 60.1 °F 100% 30.01 in 1.5 mi West 5.8 mph - N/A   Overcast
1:30 AM 60.1 °F - 60.1 °F 100% 30.01 in 3.0 mi West 5.8 mph - N/A   Overcast
1:53 AM 60.1 °F - 60.1 °F 100% 30.04 in 7.0 mi West 8.1 mph - N/A   Overcast
2:04 AM 60.1 °F - 60.1 °F 100% 30.01 in 8.0 mi WNW 8.1 mph - 0.00 in Rain Light Rain
2:53 AM 59.0 °F - 57.0 °F 93% 30.06 in 10.0 mi NNW 15.0 mph - 0.00 in   Mostly Cloudy
3:53 AM 55.9 °F - 46.0 °F 69% 30.09 in 10.0 mi North 10.4 mph 21.9 mph N/A   Clear
4:53 AM 55.0 °F - 37.9 °F 53% 30.12 in 10.0 mi North 15.0 mph 24.2 mph N/A   Mostly Cloudy
5:53 AM 53.1 °F - 30.9 °F 43% 30.17 in 10.0 mi North 12.7 mph - N/A   Clear
6:53 AM 51.1 °F - 25.0 °F 36% 30.19 in 10.0 mi North 13.8 mph 25.3 mph N/A   Clear
7:53 AM 51.1 °F - 24.1 °F 35% 30.22 in 10.0 mi North 16.1 mph 24.2 mph N/A   Clear
8:53 AM 53.1 °F - 24.1 °F 32% 30.25 in 10.0 mi North 21.9 mph 27.6 mph N/A   Clear
9:53 AM 55.0 °F - 21.9 °F 28% 30.26 in 10.0 mi North 24.2 mph 32.2 mph N/A   Clear
10:53 AM 57.9 °F - 19.0 °F 22% 30.26 in 10.0 mi North 20.7 mph 29.9 mph 0.00 in   Clear
11:53 AM 59.0 °F - 21.0 °F 23% 30.24 in 10.0 mi North 12.7 mph 26.5 mph N/A   Clear
12:53 PM 61.0 °F - 19.9 °F 21% 30.21 in 10.0 mi NNW 12.7 mph 23.0 mph N/A   Clear
1:53 PM 61.0 °F - 21.9 °F 22% 30.19 in 10.0 mi NNW 15.0 mph - N/A   Clear
2:53 PM 62.1 °F - 21.0 °F 21% 30.19 in 10.0 mi North 12.7 mph 21.9 mph N/A   Clear
3:53 PM 60.1 °F - 17.1 °F 19% 30.20 in 10.0 mi NNW 16.1 mph 21.9 mph N/A   Clear
4:53 PM 57.9 °F - 15.1 °F 19% 30.22 in 10.0 mi North 15.0 mph - N/A   Clear
5:53 PM 53.1 °F - 16.0 °F 23% 30.23 in 10.0 mi North 10.4 mph - N/A   Clear
6:53 PM 51.1 °F - 16.0 °F 25% 30.25 in 10.0 mi North 10.4 mph - N/A   Clear
7:53 PM 48.0 °F - 17.1 °F 29% 30.25 in 10.0 mi North 8.1 mph - N/A   Clear
8:53 PM 46.0 °F 42.5 °F 19.0 °F 34% 30.26 in 10.0 mi North 6.9 mph - N/A   Clear
9:53 PM 43.0 °F 39.5 °F 19.9 °F 40% 30.26 in 10.0 mi North 5.8 mph - N/A   Clear
10:53 PM 39.0 °F 36.8 °F 21.9 °F 50% 30.27 in 10.0 mi NNE 3.5 mph - N/A   Clear
11:53 PM 36.0 °F 32.1 °F 25.0 °F 64% 30.27 in 10.0 mi NNE 4.6 mph - N/A   Clear